FENGYUN 1C DEB, 29972

Orbit data source: Space-Track

FENGYUN 1C DEB, 29972 is space debris in SSO originally from a launch on Mon, 10 May 1999 UTC launched from the Taiyaun Space Center, China (TSC). Fengyun 1C debris stems from the Chinese weather satellite Fengyun-1C, which was intentionally destroyed by a Chinese anti-satellite missile in 2007. This event dramatically increased the amount of space debris, with thousands of trackable fragments posing hazards to satellites and human spaceflight. The Fengyun 1C debris cloud has become a focal point in discussions about space sustainability and the need for international regulations to prevent the creation of new debris.

Loading next visibility...
Identifier
29972, 1999-025KW
Orbit
SSO
Country
Flag of CNCN / PRC
Related business
Manufacturer
Unknown
Mission
Spacecraft
Bus & Motor
Unknown
Mass
Unknown
Launch date (UTC)
1999-05-10 (27 years ago)
Launch vehicle
Unknown
Launch site
Taiyaun Space Center, China (TSC)
Object type
Payload
Rocket body
Debris
Shape & HBR
Unknown shape, 0.1 m
Radar Cross Section
Small (<0.1 m²)

Expand to show TLE details & history
Last TLE update: 11 hours ago

TLE from 11 hours ago
0 FENGYUN 1C DEB
1 29972U 99025KW  26071.96995484  .00006713  00000-0  11523-2 0  9995
2 29972  98.9170  96.9555 0064424  93.0511 306.5511 14.67701731  8076
Epoch: 2026-03-12T23:16Z
TLE epoch observation values (Epoch: 2026-03-12T23:16:44.098Z)
Latitude
38.53113°
Longitude
-69.97883°
Altitude
646.95 km
Speed
7.552 km/s
True Right ascension
05h 59m 16s
True Declination
38° 21' 40"
Sunlit
Object was in daylight at epoch
Visualization orbit readout
Latitude
Unknown
Longitude
Unknown
Altitude
Unknown
Speed
Unknown
Apparent Right ascension
Unknown
Apparent Declination
Unknown
Sunlit
N/A
Visualization observer readout
Local Sidereal Time
15:04:36
Azimuth
Unknown
Elevation
Unknown
Doppler factor
Unknown
Orbital elements
Apogee altitude
710.898 km
Perigee altitude
620.142 km
Semi-major axis
7,043.657 km
Eccentricity
0.00644
Inclination
98.917°
RAAN
96.9555°
Arg. of periapsis
93.0511°
True anomaly
305.9552°
Mean anomaly
306.5511°
Eccentric anomaly
306.25344°
Mean motion
3.67152 °/min
Orbital period
98.05 mins
BSTAR
0.0011523
Loading maneuver chart data...
Computing Atmospheric mass density...

Documentation

Showing up to 5 results
|